Tracking 30995 objects as of 7-Jul-2025
HD Live streaming from Space Station
objects crossing your sky now

STARLINK-32936

Track STARLINK-32936 now!
10-day predictions
STARLINK-32936 is classified as:


NORAD ID: 63147
Int'l Code: 2025-043R
Perigee: 489.3 km
Apogee: 491.0 km
Inclination: 43.0 °
Period: 94.3 minutes
Semi major axis: 6861 km
RCS: Unknown
Launch date: March 2, 2024
Source: United States (US)
Launch site: AIR FORCE EASTERN TEST RANGE (AFETR)
Your satellite tracking list
Your tracking list is empty




NASA's NSSDC Master Catalog

Two Line Element Set (TLE):
1 63147U 25043R   25187.44717335  .00021545  00000-0  78982-3 0  9996
2 63147  43.0016 333.7301 0001205 267.1252  92.9461 15.27594571 19625
Source of the keplerian elements: AFSPC